Time,TemperatureF,DewpointF,PressureIn,WindDirection,WindDirectionDegrees,WindSpeedMPH,WindSpeedGustMPH,Humidity,HourlyPrecipIn,Conditions,Clouds,dailyrainin,SoftwareType,DateUTC
2013-10-13 00:02:00,50.2,40.4,30.21,NE,42,0.0,0.0,69,0.00,,,0.01,Wunderground v.1.15,2013-10-13 05:02:00,
2013-10-13 00:08:00,50.5,40.7,30.21,NE,42,0.0,0.0,69,0.00,,,0.00,Wunderground v.1.15,2013-10-13 05:08:00,
2013-10-13 00:13:00,50.6,40.4,30.21,NE,42,0.0,0.0,68,0.00,,,0.00,Wunderground v.1.15,2013-10-13 05:13:00,
2013-10-13 00:21:00,50.5,40.7,30.22,NE,42,0.0,0.0,69,0.00,,,0.00,Wunderground v.1.15,2013-10-13 05:21:00,
2013-10-13 00:35:00,50.0,40.2,30.22,NE,42,0.0,2.0,69,0.00,,,0.00,Wunderground v.1.15,2013-10-13 05:35:00,
2013-10-13 00:41:00,49.9,40.9,30.22,NE,42,0.0,2.0,71,0.00,,,0.00,Wunderground v.1.15,2013-10-13 05:41:00,
2013-10-13 00:46:00,49.7,40.7,30.22,NE,42,0.0,2.0,71,0.00,,,0.00,Wunderground v.1.15,2013-10-13 05:46:00,
2013-10-13 00:52:00,49.6,40.2,30.22,NE,42,0.0,2.0,70,0.00,,,0.00,Wunderground v.1.15,2013-10-13 05:52:00,
2013-10-13 00:57:00,49.7,40.3,30.22,NE,42,0.0,2.0,70,0.00,,,0.00,Wunderground v.1.15,2013-10-13 05:57:00,
2013-10-13 01:03:00,49.5,40.5,30.22,NE,42,0.0,2.0,71,0.00,,,0.00,Wunderground v.1.15,2013-10-13 06:03:00,
2013-10-13 01:08:00,49.3,40.7,30.23,NE,42,0.0,2.0,72,0.00,,,0.00,Wunderground v.1.15,2013-10-13 06:08:00,
2013-10-13 01:14:00,48.9,40.6,30.23,NE,42,0.0,2.0,73,0.00,,,0.00,Wunderground v.1.15,2013-10-13 06:14:00,
2013-10-13 01:19:00,47.8,39.9,30.24,NE,42,0.0,2.0,74,0.00,,,0.00,Wunderground v.1.15,2013-10-13 06:19:00,
2013-10-13 01:25:00,47.2,40.0,30.24,NE,42,0.0,2.0,76,0.00,,,0.00,Wunderground v.1.15,2013-10-13 06:25:00,
2013-10-13 01:30:00,47.1,39.9,30.24,NE,42,0.0,2.0,76,0.00,,,0.00,Wunderground v.1.15,2013-10-13 06:30:00,
2013-10-13 01:36:00,47.5,40.3,30.25,NE,42,0.0,2.0,76,0.00,,,0.00,Wunderground v.1.15,2013-10-13 06:36:00,
2013-10-13 01:41:00,47.8,40.3,30.25,NE,42,0.0,2.0,75,0.00,,,0.00,Wunderground v.1.15,2013-10-13 06:41:00,
2013-10-13 01:47:00,48.2,40.3,30.25,NE,42,0.0,2.0,74,0.00,,,0.00,Wunderground v.1.15,2013-10-13 06:47:00,
2013-10-13 01:52:00,48.4,40.1,30.25,NE,42,0.0,2.0,73,0.00,,,0.00,Wunderground v.1.15,2013-10-13 06:52:00,
2013-10-13 01:58:00,48.4,40.1,30.25,NE,42,0.0,2.0,73,0.00,,,0.00,Wunderground v.1.15,2013-10-13 06:58:00,
2013-10-13 02:03:00,48.4,40.1,30.26,NE,42,0.0,2.0,73,0.00,,,0.00,Wunderground v.1.15,2013-10-13 07:03:00,
2013-10-13 02:09:00,48.2,40.3,30.26,NE,42,0.0,2.0,74,0.00,,,0.00,Wunderground v.1.15,2013-10-13 07:09:00,
2013-10-13 02:14:00,48.0,40.1,30.26,NE,42,0.0,2.0,74,0.00,,,0.00,Wunderground v.1.15,2013-10-13 07:14:00,
2013-10-13 02:20:00,48.1,40.2,30.26,NE,42,0.0,2.0,74,0.00,,,0.00,Wunderground v.1.15,2013-10-13 07:20:00,
2013-10-13 02:26:00,48.0,40.1,30.26,NE,42,0.0,2.0,74,0.00,,,0.00,Wunderground v.1.15,2013-10-13 07:26:00,
2013-10-13 02:31:00,47.8,39.9,30.27,NE,42,0.0,2.0,74,0.00,,,0.00,Wunderground v.1.15,2013-10-13 07:31:00,
2013-10-13 02:37:00,47.3,40.1,30.27,NE,42,0.0,2.0,76,0.00,,,0.00,Wunderground v.1.15,2013-10-13 07:37:00,
2013-10-13 02:42:00,46.9,40.1,30.27,NE,42,0.0,2.0,77,0.00,,,0.00,Wunderground v.1.15,2013-10-13 07:42:00,
2013-10-13 02:48:00,46.5,40.0,30.27,NE,42,0.0,2.0,78,0.00,,,0.00,Wunderground v.1.15,2013-10-13 07:48:00,
2013-10-13 02:53:00,46.4,39.9,30.28,NE,42,0.0,2.0,78,0.00,,,0.00,Wunderground v.1.15,2013-10-13 07:53:00,
2013-10-13 02:59:00,46.5,40.0,30.28,NE,42,0.0,2.0,78,0.00,,,0.00,Wunderground v.1.15,2013-10-13 07:59:00,
2013-10-13 03:09:00,46.6,39.8,30.28,NE,42,0.0,2.0,77,0.00,,,0.00,Wunderground v.1.15,2013-10-13 08:09:00,
2013-10-13 03:15:00,46.4,39.9,30.28,NE,42,0.0,2.0,78,0.00,,,0.00,Wunderground v.1.15,2013-10-13 08:15:00,
2013-10-13 03:20:00,46.3,39.5,30.28,NE,42,0.0,2.0,77,0.00,,,0.00,Wunderground v.1.15,2013-10-13 08:20:00,
2013-10-13 03:26:00,46.4,39.6,30.28,NE,42,0.0,2.0,77,0.00,,,0.00,Wunderground v.1.15,2013-10-13 08:26:00,
2013-10-13 03:35:00,46.9,39.4,30.28,NE,42,0.0,2.0,75,0.00,,,0.00,Wunderground v.1.15,2013-10-13 08:35:00,
2013-10-13 03:49:00,47.8,39.6,30.28,NE,42,0.0,2.0,73,0.00,,,0.00,Wunderground v.1.15,2013-10-13 08:49:00,
2013-10-13 03:55:00,47.7,39.5,30.29,NE,42,0.0,2.0,73,0.00,,,0.00,Wunderground v.1.15,2013-10-13 08:55:00,
2013-10-13 04:01:00,47.5,39.3,30.29,NE,42,0.0,2.0,73,0.00,,,0.00,Wunderground v.1.15,2013-10-13 09:01:00,
2013-10-13 04:06:00,47.4,39.2,30.29,NE,42,0.0,2.0,73,0.00,,,0.00,Wunderground v.1.15,2013-10-13 09:06:00,
2013-10-13 04:11:00,47.3,39.4,30.29,NE,42,0.0,2.0,74,0.00,,,0.00,Wunderground v.1.15,2013-10-13 09:11:00,
2013-10-13 04:17:00,47.5,39.3,30.29,NNE,32,0.0,2.0,73,0.00,,,0.00,Wunderground v.1.15,2013-10-13 09:17:00,
2013-10-13 04:23:00,47.6,39.4,30.29,NE,34,1.0,2.0,73,0.00,,,0.00,Wunderground v.1.15,2013-10-13 09:23:00,
2013-10-13 04:28:00,47.6,39.4,30.29,NE,34,0.0,2.0,73,0.00,,,0.00,Wunderground v.1.15,2013-10-13 09:28:00,
2013-10-13 04:34:00,47.5,39.3,30.30,NE,34,0.0,2.0,73,0.00,,,0.00,Wunderground v.1.15,2013-10-13 09:34:00,
2013-10-13 04:39:00,47.4,39.2,30.30,NE,34,0.0,2.0,73,0.00,,,0.00,Wunderground v.1.15,2013-10-13 09:39:00,
2013-10-13 04:50:00,47.5,39.3,30.30,NE,34,0.0,2.0,73,0.00,,,0.00,Wunderground v.1.15,2013-10-13 09:50:00,
2013-10-13 04:56:00,47.4,39.2,30.30,NE,34,0.0,2.0,73,0.00,,,0.00,Wunderground v.1.15,2013-10-13 09:56:00,
2013-10-13 05:02:00,47.3,39.1,30.30,NE,34,0.0,4.0,73,0.00,,,0.00,Wunderground v.1.15,2013-10-13 10:02:00,
2013-10-13 05:08:00,47.2,39.0,30.30,NE,34,0.0,4.0,73,0.00,,,0.00,Wunderground v.1.15,2013-10-13 10:08:00,
2013-10-13 05:13:00,47.1,38.9,30.30,NE,34,0.0,2.0,73,0.00,,,0.00,Wunderground v.1.15,2013-10-13 10:13:00,
2013-10-13 05:18:00,47.0,39.1,30.30,NE,34,1.0,2.0,74,0.00,,,0.00,Wunderground v.1.15,2013-10-13 10:18:00,
2013-10-13 05:24:00,47.0,39.1,30.30,NE,34,1.0,2.0,74,0.00,,,0.00,Wunderground v.1.15,2013-10-13 10:24:00,
2013-10-13 05:30:00,46.8,38.9,30.30,NE,34,1.0,1.0,74,0.00,,,0.00,Wunderground v.1.15,2013-10-13 10:30:00,
2013-10-13 05:35:00,46.7,38.9,30.31,NE,34,1.0,2.0,74,0.00,,,0.00,Wunderground v.1.15,2013-10-13 10:35:00,
2013-10-13 05:41:00,46.5,39.0,30.31,NE,34,1.0,2.0,75,0.00,,,0.00,Wunderground v.1.15,2013-10-13 10:41:00,
2013-10-13 05:46:00,46.4,38.9,30.31,NE,34,0.0,2.0,75,0.00,,,0.00,Wunderground v.1.15,2013-10-13 10:46:00,
2013-10-13 05:52:00,46.4,38.9,30.31,NE,34,1.0,2.0,75,0.00,,,0.00,Wunderground v.1.15,2013-10-13 10:52:00,
2013-10-13 05:57:00,46.3,38.8,30.31,NE,34,1.0,2.0,75,0.00,,,0.00,Wunderground v.1.15,2013-10-13 10:57:00,
2013-10-13 06:03:00,46.1,38.6,30.32,NE,34,1.0,2.0,75,0.00,,,0.00,Wunderground v.1.15,2013-10-13 11:03:00,
2013-10-13 06:08:00,46.0,38.5,30.32,NE,34,0.0,2.0,75,0.00,,,0.00,Wunderground v.1.15,2013-10-13 11:08:00,
2013-10-13 06:14:00,45.8,38.7,30.32,NE,34,0.0,2.0,76,0.00,,,0.00,Wunderground v.1.15,2013-10-13 11:14:00,
2013-10-13 06:19:00,45.8,38.7,30.32,NE,34,1.0,2.0,76,0.00,,,0.00,Wunderground v.1.15,2013-10-13 11:19:00,
2013-10-13 06:25:00,45.7,38.6,30.32,NE,34,1.0,2.0,76,0.00,,,0.00,Wunderground v.1.15,2013-10-13 11:25:00,
2013-10-13 06:30:00,45.5,38.4,30.32,NE,34,1.0,1.0,76,0.00,,,0.00,Wunderground v.1.15,2013-10-13 11:30:00,
2013-10-13 06:36:00,45.2,38.4,30.32,NE,34,0.0,2.0,77,0.00,,,0.00,Wunderground v.1.15,2013-10-13 11:36:00,
2013-10-13 06:41:00,45.0,38.2,30.33,NE,34,0.0,2.0,77,0.00,,,0.00,Wunderground v.1.15,2013-10-13 11:41:00,
2013-10-13 06:47:00,44.7,37.9,30.33,NE,34,0.0,2.0,77,0.00,,,0.00,Wunderground v.1.15,2013-10-13 11:47:00,
2013-10-13 06:52:00,44.5,38.1,30.33,NE,34,0.0,2.0,78,0.00,,,0.00,Wunderground v.1.15,2013-10-13 11:52:00,
2013-10-13 06:58:00,44.4,38.0,30.33,NE,34,0.0,2.0,78,0.00,,,0.00,Wunderground v.1.15,2013-10-13 11:58:00,
2013-10-13 07:03:00,44.5,38.1,30.33,NE,34,0.0,2.0,78,0.00,,,0.00,Wunderground v.1.15,2013-10-13 12:03:00,
2013-10-13 07:09:00,44.6,37.8,30.34,NE,34,0.0,2.0,77,0.00,,,0.00,Wunderground v.1.15,2013-10-13 12:09:00,
2013-10-13 07:14:00,44.7,37.9,30.34,NE,34,0.0,2.0,77,0.00,,,0.00,Wunderground v.1.15,2013-10-13 12:14:00,
2013-10-13 07:20:00,44.7,37.9,30.34,NE,34,0.0,2.0,77,0.00,,,0.00,Wunderground v.1.15,2013-10-13 12:20:00,
2013-10-13 07:25:00,44.6,37.8,30.34,NE,34,0.0,2.0,77,0.00,,,0.00,Wunderground v.1.15,2013-10-13 12:25:00,
2013-10-13 07:31:00,44.5,37.7,30.34,NE,34,0.0,2.0,77,0.00,,,0.00,Wunderground v.1.15,2013-10-13 12:31:00,
2013-10-13 07:36:00,44.4,38.0,30.34,NE,34,0.0,2.0,78,0.00,,,0.00,Wunderground v.1.15,2013-10-13 12:36:00,
2013-10-13 07:42:00,44.4,38.0,30.34,NE,34,0.0,2.0,78,0.00,,,0.00,Wunderground v.1.15,2013-10-13 12:42:00,
2013-10-13 07:47:00,44.7,38.3,30.35,NE,34,1.0,2.0,78,0.00,,,0.00,Wunderground v.1.15,2013-10-13 12:47:00,
2013-10-13 07:53:00,45.1,38.3,30.35,NE,34,0.0,2.0,77,0.00,,,0.00,Wunderground v.1.15,2013-10-13 12:53:00,
2013-10-13 07:58:00,45.3,38.5,30.35,NE,34,0.0,2.0,77,0.00,,,0.00,Wunderground v.1.15,2013-10-13 12:58:00,
2013-10-13 08:04:00,45.6,38.5,30.36,NE,34,0.0,2.0,76,0.00,,,0.00,Wunderground v.1.15,2013-10-13 13:04:00,
2013-10-13 08:09:00,45.9,38.8,30.36,NE,34,1.0,2.0,76,0.00,,,0.00,Wunderground v.1.15,2013-10-13 13:09:00,
2013-10-13 08:15:00,46.3,38.8,30.36,NE,34,1.0,2.0,75,0.00,,,0.00,Wunderground v.1.15,2013-10-13 13:15:00,
2013-10-13 08:20:00,46.5,39.3,30.37,NE,34,1.0,2.0,76,0.00,,,0.00,Wunderground v.1.15,2013-10-13 13:20:00,
2013-10-13 08:32:00,47.5,40.6,30.37,NE,50,2.0,5.0,77,0.00,,,0.00,Wunderground v.1.15,2013-10-13 13:32:00,
2013-10-13 08:38:00,48.1,40.5,30.37,NE,55,2.0,6.0,75,0.00,,,0.00,Wunderground v.1.15,2013-10-13 13:38:00,
2013-10-13 08:43:00,48.7,40.4,30.38,ENE,61,3.0,4.0,73,0.00,,,0.00,Wunderground v.1.15,2013-10-13 13:43:00,
2013-10-13 08:49:00,49.3,40.3,30.38,East,87,3.0,5.0,71,0.00,,,0.00,Wunderground v.1.15,2013-10-13 13:49:00,
2013-10-13 08:55:00,49.8,40.4,30.38,ENE,66,3.0,5.0,70,0.00,,,0.00,Wunderground v.1.15,2013-10-13 13:55:00,
2013-10-13 09:00:00,50.2,40.0,30.38,East,79,3.0,4.0,68,0.00,,,0.00,Wunderground v.1.15,2013-10-13 14:00:00,
2013-10-13 09:05:00,50.6,40.4,30.38,ENE,76,4.0,5.0,68,0.00,,,0.00,Wunderground v.1.15,2013-10-13 14:05:00,
2013-10-13 09:11:00,51.2,40.6,30.39,ENE,65,3.0,5.0,67,0.00,,,0.00,Wunderground v.1.15,2013-10-13 14:11:00,
2013-10-13 09:17:00,51.5,40.5,30.39,ENE,63,3.0,5.0,66,0.00,,,0.00,Wunderground v.1.15,2013-10-13 14:17:00,
2013-10-13 09:22:00,52.0,40.6,30.39,ENE,71,3.0,6.0,65,0.00,,,0.00,Wunderground v.1.15,2013-10-13 14:22:00,
2013-10-13 09:27:00,52.6,41.2,30.39,ENE,71,3.0,6.0,65,0.00,,,0.00,Wunderground v.1.15,2013-10-13 14:27:00,
2013-10-13 09:33:00,53.0,41.1,30.40,NE,56,3.0,5.0,64,0.00,,,0.00,Wunderground v.1.15,2013-10-13 14:33:00,
2013-10-13 09:39:00,53.5,41.2,30.39,East,100,3.0,6.0,63,0.00,,,0.00,Wunderground v.1.15,2013-10-13 14:39:00,
2013-10-13 09:44:00,54.0,41.3,30.40,East,93,3.0,5.0,62,0.00,,,0.00,Wunderground v.1.15,2013-10-13 14:44:00,
2013-10-13 09:49:00,54.5,41.3,30.40,East,88,3.0,5.0,61,0.00,,,0.00,Wunderground v.1.15,2013-10-13 14:49:00,
2013-10-13 09:55:00,55.1,41.5,30.40,NE,54,2.0,3.0,60,0.00,,,0.00,Wunderground v.1.15,2013-10-13 14:55:00,
2013-10-13 10:01:00,55.8,41.7,30.40,NE,56,1.0,2.0,59,0.00,,,0.00,Wunderground v.1.15,2013-10-13 15:01:00,
2013-10-13 10:06:00,56.2,41.6,30.40,ENE,61,2.0,4.0,58,0.00,,,0.00,Wunderground v.1.15,2013-10-13 15:06:00,
2013-10-13 10:12:00,56.6,42.0,30.40,East,82,2.0,6.0,58,0.00,,,0.00,Wunderground v.1.15,2013-10-13 15:12:00,
2013-10-13 10:17:00,57.2,41.6,30.40,East,100,3.0,6.0,56,0.00,,,0.00,Wunderground v.1.15,2013-10-13 15:17:00,
2013-10-13 10:27:00,57.9,41.8,30.41,ENE,66,2.0,4.0,55,0.00,,,0.00,Wunderground v.1.15,2013-10-13 15:27:00,
2013-10-13 10:33:00,58.7,41.1,30.40,ESE,105,2.0,2.0,52,0.00,,,0.00,Wunderground v.1.15,2013-10-13 15:33:00,
2013-10-13 10:39:00,59.2,40.6,30.40,East,98,2.0,5.0,50,0.00,,,0.00,Wunderground v.1.15,2013-10-13 15:39:00,
2013-10-13 10:45:00,59.6,40.9,30.40,ESE,111,3.0,5.0,50,0.00,,,0.00,Wunderground v.1.15,2013-10-13 15:45:00,
2013-10-13 10:50:00,60.0,41.3,30.40,ESE,113,3.0,7.0,50,0.00,,,0.00,Wunderground v.1.15,2013-10-13 15:50:00,
2013-10-13 10:56:00,60.4,41.1,30.40,ESE,106,3.0,7.0,49,0.00,,,0.00,Wunderground v.1.15,2013-10-13 15:56:00,
2013-10-13 11:01:00,61.0,40.6,30.40,ENE,63,4.0,5.0,47,0.00,,,0.00,Wunderground v.1.15,2013-10-13 16:01:00,
2013-10-13 11:07:00,61.3,40.9,30.40,East,93,3.0,5.0,47,0.00,,,0.00,Wunderground v.1.15,2013-10-13 16:07:00,
2013-10-13 11:12:00,61.8,40.8,30.41,NNE,26,2.0,3.0,46,0.00,,,0.00,Wunderground v.1.15,2013-10-13 16:12:00,
2013-10-13 11:20:00,62.6,39.8,30.40,East,96,3.0,5.0,43,0.00,,,0.00,Wunderground v.1.15,2013-10-13 16:20:00,
2013-10-13 11:25:00,62.8,40.5,30.40,ENE,74,4.0,5.0,44,0.00,,,0.00,Wunderground v.1.15,2013-10-13 16:25:00,
2013-10-13 11:31:00,63.1,37.7,30.40,ENE,65,3.0,4.0,39,0.00,,,0.00,Wunderground v.1.15,2013-10-13 16:31:00,
2013-10-13 11:36:00,63.5,38.7,30.40,ESE,113,4.0,6.0,40,0.00,,,0.00,Wunderground v.1.15,2013-10-13 16:36:00,
2013-10-13 11:42:00,63.6,38.2,30.40,ENE,78,5.0,5.0,39,0.00,,,0.00,Wunderground v.1.15,2013-10-13 16:42:00,
2013-10-13 11:48:00,63.9,37.8,30.40,ESE,111,5.0,7.0,38,0.00,,,0.00,Wunderground v.1.15,2013-10-13 16:48:00,
2013-10-13 11:54:00,64.2,35.2,30.40,East,98,6.0,11.0,34,0.00,,,0.00,Wunderground v.1.15,2013-10-13 16:54:00,
2013-10-13 12:00:00,64.1,33.6,30.40,East,89,6.0,6.0,32,0.00,,,0.00,Wunderground v.1.15,2013-10-13 17:00:00,
2013-10-13 12:05:00,64.4,36.8,30.40,East,96,5.0,7.0,36,0.00,,,0.00,Wunderground v.1.15,2013-10-13 17:05:00,
2013-10-13 12:11:00,64.6,36.3,30.40,ESE,116,5.0,7.0,35,0.00,,,0.00,Wunderground v.1.15,2013-10-13 17:11:00,
2013-10-13 12:16:00,64.8,36.5,30.39,ENE,67,5.0,7.0,35,0.00,,,0.00,Wunderground v.1.15,2013-10-13 17:16:00,
2013-10-13 12:22:00,64.9,35.1,30.39,East,80,4.0,7.0,33,0.00,,,0.00,Wunderground v.1.15,2013-10-13 17:22:00,
2013-10-13 12:27:00,64.9,35.1,30.39,East,83,5.0,7.0,33,0.00,,,0.00,Wunderground v.1.15,2013-10-13 17:27:00,
2013-10-13 12:33:00,64.9,35.1,30.39,ESE,102,4.0,5.0,33,0.00,,,0.00,Wunderground v.1.15,2013-10-13 17:33:00,
2013-10-13 12:38:00,65.3,36.9,30.39,ESE,107,4.0,9.0,35,0.00,,,0.00,Wunderground v.1.15,2013-10-13 17:38:00,
2013-10-13 12:44:00,65.4,35.5,30.39,ESE,103,6.0,7.0,33,0.00,,,0.00,Wunderground v.1.15,2013-10-13 17:44:00,
2013-10-13 12:49:00,65.5,34.0,30.39,NE,53,5.0,7.0,31,0.00,,,0.00,Wunderground v.1.15,2013-10-13 17:49:00,
2013-10-13 12:55:00,65.7,35.8,30.38,NW,310,3.0,5.0,33,0.00,,,0.00,Wunderground v.1.15,2013-10-13 17:55:00,
2013-10-13 13:00:00,65.9,36.0,30.38,ESE,107,3.0,10.0,33,0.00,,,0.00,Wunderground v.1.15,2013-10-13 18:00:00,
2013-10-13 13:06:00,65.8,34.3,30.38,ENE,78,5.0,10.0,31,0.00,,,0.00,Wunderground v.1.15,2013-10-13 18:06:00,
2013-10-13 13:11:00,65.8,34.3,30.38,NE,44,4.0,5.0,31,0.00,,,0.00,Wunderground v.1.15,2013-10-13 18:11:00,
2013-10-13 13:17:00,65.6,33.3,30.37,East,80,5.0,9.0,30,0.00,,,0.00,Wunderground v.1.15,2013-10-13 18:17:00,
2013-10-13 13:22:00,65.8,34.3,30.37,ENE,64,3.0,6.0,31,0.00,,,0.00,Wunderground v.1.15,2013-10-13 18:22:00,
2013-10-13 13:28:00,66.1,36.9,30.37,ESE,106,3.0,7.0,34,0.00,,,0.00,Wunderground v.1.15,2013-10-13 18:28:00,
2013-10-13 13:33:00,66.3,33.9,30.37,ESE,108,4.0,6.0,30,0.00,,,0.00,Wunderground v.1.15,2013-10-13 18:33:00,
2013-10-13 13:39:00,66.8,36.0,30.37,ESE,106,3.0,8.0,32,0.00,,,0.00,Wunderground v.1.15,2013-10-13 18:39:00,
2013-10-13 13:44:00,66.7,34.3,30.36,East,96,5.0,9.0,30,0.00,,,0.00,Wunderground v.1.15,2013-10-13 18:44:00,
2013-10-13 13:50:00,66.4,34.8,30.37,East,97,5.0,5.0,31,0.00,,,0.00,Wunderground v.1.15,2013-10-13 18:50:00,
2013-10-13 13:55:00,66.8,33.5,30.36,WSW,248,2.0,5.0,29,0.00,,,0.00,Wunderground v.1.15,2013-10-13 18:55:00,
2013-10-13 14:06:00,66.8,32.6,30.36,NE,43,4.0,5.0,28,0.00,,,0.00,Wunderground v.1.15,2013-10-13 19:06:00,
2013-10-13 14:12:00,66.7,32.5,30.36,NE,42,4.0,6.0,28,0.00,,,0.00,Wunderground v.1.15,2013-10-13 19:12:00,
2013-10-13 14:17:00,66.7,34.3,30.35,East,98,4.0,6.0,30,0.00,,,0.00,Wunderground v.1.15,2013-10-13 19:17:00,
2013-10-13 14:23:00,66.8,33.5,30.35,NE,54,3.0,4.0,29,0.00,,,0.00,Wunderground v.1.15,2013-10-13 19:23:00,
2013-10-13 14:28:00,67.4,35.7,30.35,SSE,166,1.0,4.0,31,0.00,,,0.00,Wunderground v.1.15,2013-10-13 19:28:00,
2013-10-13 14:34:00,67.4,34.0,30.35,ESE,106,3.0,8.0,29,0.00,,,0.00,Wunderground v.1.15,2013-10-13 19:34:00,
2013-10-13 14:40:00,67.3,33.9,30.35,ESE,111,5.0,5.0,29,0.00,,,0.00,Wunderground v.1.15,2013-10-13 19:40:00,
2013-10-13 14:45:00,67.1,32.0,30.35,ESE,110,6.0,7.0,27,0.00,,,0.00,Wunderground v.1.15,2013-10-13 19:45:00,
2013-10-13 14:51:00,67.4,32.2,30.34,SSW,213,3.0,4.0,27,0.00,,,0.00,Wunderground v.1.15,2013-10-13 19:51:00,
2013-10-13 14:56:00,67.8,33.5,30.34,ESE,116,2.0,11.0,28,0.00,,,0.00,Wunderground v.1.15,2013-10-13 19:56:00,
2013-10-13 15:02:00,67.6,35.0,30.34,SE,128,4.0,5.0,30,0.00,,,0.00,Wunderground v.1.15,2013-10-13 20:02:00,
2013-10-13 15:07:00,67.9,33.6,30.34,SSE,151,3.0,5.0,28,0.00,,,0.00,Wunderground v.1.15,2013-10-13 20:07:00,
2013-10-13 15:13:00,67.6,34.2,30.34,ESE,115,4.0,9.0,29,0.00,,,0.00,Wunderground v.1.15,2013-10-13 20:13:00,
2013-10-13 15:18:00,67.4,34.0,30.34,ESE,113,5.0,9.0,29,0.00,,,0.00,Wunderground v.1.15,2013-10-13 20:18:00,
2013-10-13 15:24:00,67.6,35.0,30.33,ESE,112,3.0,8.0,30,0.00,,,0.00,Wunderground v.1.15,2013-10-13 20:24:00,
2013-10-13 15:29:00,67.5,35.0,30.33,ESE,107,4.0,9.0,30,0.00,,,0.00,Wunderground v.1.15,2013-10-13 20:29:00,
2013-10-13 15:35:00,67.3,32.1,30.33,ENE,78,6.0,9.0,27,0.00,,,0.00,Wunderground v.1.15,2013-10-13 20:35:00,
2013-10-13 15:40:00,67.3,33.1,30.33,ESE,109,4.0,4.0,28,0.00,,,0.00,Wunderground v.1.15,2013-10-13 20:40:00,
2013-10-13 15:46:00,67.6,34.2,30.33,ESE,103,3.0,8.0,29,0.00,,,0.00,Wunderground v.1.15,2013-10-13 20:46:00,
2013-10-13 15:51:00,67.6,32.4,30.33,ESE,104,4.0,4.0,27,0.00,,,0.00,Wunderground v.1.15,2013-10-13 20:51:00,
2013-10-13 15:57:00,67.5,32.3,30.33,ENE,59,3.0,6.0,27,0.00,,,0.00,Wunderground v.1.15,2013-10-13 20:57:00,
2013-10-13 16:02:00,67.5,32.3,30.33,ESE,104,3.0,9.0,27,0.00,,,0.00,Wunderground v.1.15,2013-10-13 21:02:00,
2013-10-13 16:08:00,67.3,32.1,30.33,ENE,66,4.0,11.0,27,0.00,,,0.00,Wunderground v.1.15,2013-10-13 21:08:00,
2013-10-13 16:13:00,67.3,31.2,30.32,ESE,104,3.0,5.0,26,0.00,,,0.00,Wunderground v.1.15,2013-10-13 21:13:00,
2013-10-13 16:19:00,67.5,34.1,30.32,ESE,117,1.0,5.0,29,0.00,,,0.00,Wunderground v.1.15,2013-10-13 21:19:00,
2013-10-13 16:24:00,67.6,34.2,30.32,ESE,104,2.0,8.0,29,0.00,,,0.00,Wunderground v.1.15,2013-10-13 21:24:00,
2013-10-13 16:30:00,67.3,33.9,30.32,ESE,116,4.0,4.0,29,0.00,,,0.00,Wunderground v.1.15,2013-10-13 21:30:00,
2013-10-13 16:35:00,67.4,34.9,30.32,ENE,78,4.0,5.0,30,0.00,,,0.00,Wunderground v.1.15,2013-10-13 21:35:00,
2013-10-13 16:41:00,67.4,34.9,30.31,ESE,113,4.0,6.0,30,0.00,,,0.00,Wunderground v.1.15,2013-10-13 21:41:00,
2013-10-13 16:47:00,67.3,33.9,30.31,SE,146,4.0,6.0,29,0.00,,,0.00,Wunderground v.1.15,2013-10-13 21:47:00,
2013-10-13 16:52:00,67.2,32.1,30.31,ESE,107,3.0,5.0,27,0.00,,,0.00,Wunderground v.1.15,2013-10-13 21:52:00,
2013-10-13 16:58:00,67.0,33.7,30.31,East,98,3.0,6.0,29,0.00,,,0.00,Wunderground v.1.15,2013-10-13 21:58:00,
2013-10-13 17:04:00,66.8,32.6,30.31,ESE,116,4.0,5.0,28,0.00,,,0.00,Wunderground v.1.15,2013-10-13 22:04:00,
2013-10-13 17:10:00,66.8,32.6,30.32,ESE,111,4.0,4.0,28,0.00,,,0.00,Wunderground v.1.15,2013-10-13 22:10:00,
2013-10-13 17:15:00,66.7,34.3,30.31,ESE,118,3.0,4.0,30,0.00,,,0.00,Wunderground v.1.15,2013-10-13 22:15:00,
2013-10-13 17:21:00,66.6,33.3,30.31,ESE,123,2.0,3.0,29,0.00,,,0.00,Wunderground v.1.15,2013-10-13 22:21:00,
2013-10-13 17:26:00,66.4,34.8,30.31,East,98,3.0,5.0,31,0.00,,,0.00,Wunderground v.1.15,2013-10-13 22:26:00,
2013-10-13 17:32:00,66.1,34.6,30.31,East,95,3.0,4.0,31,0.00,,,0.00,Wunderground v.1.15,2013-10-13 22:32:00,
2013-10-13 17:37:00,65.7,35.8,30.31,ESE,105,3.0,4.0,33,0.00,,,0.00,Wunderground v.1.15,2013-10-13 22:37:00,
2013-10-13 17:43:00,65.3,36.2,30.31,ESE,105,2.0,3.0,34,0.00,,,0.00,Wunderground v.1.15,2013-10-13 22:43:00,
2013-10-13 17:49:00,64.9,38.0,30.32,ESE,105,1.0,3.0,37,0.00,,,0.00,Wunderground v.1.15,2013-10-13 22:49:00,
2013-10-13 17:54:00,64.4,38.2,30.31,ESE,105,0.0,2.0,38,0.00,,,0.00,Wunderground v.1.15,2013-10-13 22:54:00,
2013-10-13 18:00:00,63.7,38.3,30.31,ESE,105,0.0,2.0,39,0.00,,,0.00,Wunderground v.1.15,2013-10-13 23:00:00,
2013-10-13 18:05:00,63.0,37.6,30.32,ESE,105,0.0,2.0,39,0.00,,,0.00,Wunderground v.1.15,2013-10-13 23:05:00,
2013-10-13 18:11:00,62.3,37.0,30.31,ESE,105,0.0,2.0,39,0.00,,,0.00,Wunderground v.1.15,2013-10-13 23:11:00,
2013-10-13 18:16:00,61.8,37.8,30.31,ESE,105,0.0,2.0,41,0.00,,,0.00,Wunderground v.1.15,2013-10-13 23:16:00,
2013-10-13 18:22:00,61.3,36.1,30.31,ESE,105,0.0,2.0,39,0.00,,,0.00,Wunderground v.1.15,2013-10-13 23:22:00,
2013-10-13 18:27:00,60.9,36.4,30.31,ESE,105,0.0,2.0,40,0.00,,,0.00,Wunderground v.1.15,2013-10-13 23:27:00,
2013-10-13 18:33:00,60.8,35.7,30.31,ESE,105,1.0,3.0,39,0.00,,,0.00,Wunderground v.1.15,2013-10-13 23:33:00,
2013-10-13 18:45:00,59.7,35.9,30.32,ESE,105,0.0,2.0,41,0.00,,,0.00,Wunderground v.1.15,2013-10-13 23:45:00,
2013-10-13 18:54:00,59.5,35.8,30.31,ESE,105,3.0,3.0,41,0.00,,,0.00,Wunderground v.1.15,2013-10-13 23:54:00,
2013-10-13 19:00:00,59.2,35.5,30.32,East,88,4.0,4.0,41,0.00,,,0.00,Wunderground v.1.15,2013-10-14 00:00:00,
2013-10-13 19:06:00,58.7,35.7,30.32,East,88,3.0,4.0,42,0.00,,,0.00,Wunderground v.1.15,2013-10-14 00:06:00,
2013-10-13 19:11:00,58.1,36.3,30.32,East,88,1.0,2.0,44,0.00,,,0.00,Wunderground v.1.15,2013-10-14 00:11:00,
2013-10-13 19:17:00,57.4,36.2,30.32,East,88,0.0,2.0,45,0.00,,,0.00,Wunderground v.1.15,2013-10-14 00:17:00,
2013-10-13 19:22:00,56.7,35.6,30.32,East,88,0.0,2.0,45,0.00,,,0.00,Wunderground v.1.15,2013-10-14 00:22:00,
2013-10-13 19:28:00,56.2,35.7,30.32,East,88,0.0,2.0,46,0.00,,,0.00,Wunderground v.1.15,2013-10-14 00:28:00,
2013-10-13 19:33:00,55.9,35.4,30.33,East,88,0.0,2.0,46,0.00,,,0.00,Wunderground v.1.15,2013-10-14 00:33:00,
2013-10-13 19:39:00,55.7,35.8,30.33,East,88,0.0,2.0,47,0.00,,,0.00,Wunderground v.1.15,2013-10-14 00:39:00,
2013-10-13 19:44:00,55.8,34.8,30.33,East,88,1.0,2.0,45,0.00,,,0.00,Wunderground v.1.15,2013-10-14 00:44:00,
2013-10-13 19:50:00,56.5,35.4,30.33,East,90,1.0,1.0,45,0.00,,,0.00,Wunderground v.1.15,2013-10-14 00:50:00,
2013-10-13 19:55:00,56.6,34.9,30.33,East,90,1.0,2.0,44,0.00,,,0.00,Wunderground v.1.15,2013-10-14 00:55:00,
2013-10-13 20:01:00,56.4,35.3,30.33,East,90,0.0,2.0,45,0.00,,,0.00,Wunderground v.1.15,2013-10-14 01:01:00,
2013-10-13 20:06:00,56.1,35.6,30.34,East,90,0.0,2.0,46,0.00,,,0.00,Wunderground v.1.15,2013-10-14 01:06:00,
2013-10-13 20:12:00,55.4,35.5,30.34,East,90,0.0,2.0,47,0.00,,,0.00,Wunderground v.1.15,2013-10-14 01:12:00,
2013-10-13 20:17:00,54.9,35.0,30.34,East,90,0.0,2.0,47,0.00,,,0.00,Wunderground v.1.15,2013-10-14 01:17:00,
2013-10-13 20:23:00,54.5,35.2,30.35,East,90,0.0,2.0,48,0.00,,,0.00,Wunderground v.1.15,2013-10-14 01:23:00,
2013-10-13 20:28:00,54.1,35.3,30.35,East,90,0.0,2.0,49,0.00,,,0.00,Wunderground v.1.15,2013-10-14 01:28:00,
2013-10-13 20:34:00,53.9,35.7,30.35,East,90,0.0,2.0,50,0.00,,,0.00,Wunderground v.1.15,2013-10-14 01:34:00,
2013-10-13 20:39:00,53.6,35.9,30.35,East,90,0.0,2.0,51,0.00,,,0.00,Wunderground v.1.15,2013-10-14 01:39:00,
2013-10-13 20:45:00,53.6,34.9,30.35,East,90,0.0,2.0,49,0.00,,,0.00,Wunderground v.1.15,2013-10-14 01:45:00,
2013-10-13 20:50:00,54.2,34.9,30.35,East,90,0.0,2.0,48,0.00,,,0.00,Wunderground v.1.15,2013-10-14 01:50:00,
2013-10-13 20:56:00,54.6,34.2,30.34,East,90,1.0,2.0,46,0.00,,,0.00,Wunderground v.1.15,2013-10-14 01:56:00,
2013-10-13 21:01:00,54.1,34.8,30.34,East,90,1.0,2.0,48,0.00,,,0.00,Wunderground v.1.15,2013-10-14 02:01:00,
2013-10-13 21:07:00,53.0,34.8,30.34,East,90,1.0,2.0,50,0.00,,,0.00,Wunderground v.1.15,2013-10-14 02:07:00,
2013-10-13 21:12:00,52.3,34.7,30.34,East,90,1.0,2.0,51,0.00,,,0.00,Wunderground v.1.15,2013-10-14 02:12:00,
2013-10-13 21:18:00,51.6,35.0,30.34,East,90,1.0,2.0,53,0.00,,,0.00,Wunderground v.1.15,2013-10-14 02:18:00,
2013-10-13 21:24:00,51.0,35.4,30.33,East,90,1.0,2.0,55,0.00,,,0.00,Wunderground v.1.15,2013-10-14 02:24:00,
2013-10-13 21:29:00,50.7,35.6,30.34,East,90,1.0,2.0,56,0.00,,,0.00,Wunderground v.1.15,2013-10-14 02:29:00,
2013-10-13 21:38:00,50.7,35.6,30.34,East,90,1.0,2.0,56,0.00,,,0.00,Wunderground v.1.15,2013-10-14 02:38:00,
2013-10-13 21:44:00,51.4,35.3,30.34,East,90,1.0,2.0,54,0.00,,,0.00,Wunderground v.1.15,2013-10-14 02:44:00,
2013-10-13 21:50:00,52.1,35.5,30.34,East,90,1.0,2.0,53,0.00,,,0.00,Wunderground v.1.15,2013-10-14 02:50:00,
2013-10-13 21:55:00,52.1,35.5,30.34,East,90,1.0,2.0,53,0.00,,,0.00,Wunderground v.1.15,2013-10-14 02:55:00,
2013-10-13 22:01:00,51.5,35.4,30.34,East,90,0.0,2.0,54,0.00,,,0.00,Wunderground v.1.15,2013-10-14 03:01:00,
2013-10-13 22:06:00,51.1,35.9,30.34,East,90,0.0,2.0,56,0.00,,,0.00,Wunderground v.1.15,2013-10-14 03:06:00,
2013-10-13 22:12:00,50.7,35.6,30.34,East,90,0.0,2.0,56,0.00,,,0.00,Wunderground v.1.15,2013-10-14 03:12:00,
2013-10-13 22:17:00,50.7,35.6,30.34,East,90,0.0,2.0,56,0.00,,,0.00,Wunderground v.1.15,2013-10-14 03:17:00,
2013-10-13 22:34:00,51.2,35.6,30.34,East,90,0.0,2.0,55,0.00,,,0.00,Wunderground v.1.15,2013-10-14 03:34:00,
2013-10-13 22:42:00,50.7,35.6,30.35,East,90,1.0,2.0,56,0.00,,,0.00,Wunderground v.1.15,2013-10-14 03:42:00,
2013-10-13 22:48:00,50.3,35.6,30.35,East,90,0.0,2.0,57,0.00,,,0.00,Wunderground v.1.15,2013-10-14 03:48:00,
2013-10-13 22:53:00,50.1,35.9,30.35,East,90,0.0,2.0,58,0.00,,,0.00,Wunderground v.1.15,2013-10-14 03:53:00,
2013-10-13 22:59:00,50.1,36.3,30.35,East,90,0.0,2.0,59,0.00,,,0.00,Wunderground v.1.15,2013-10-14 03:59:00,
2013-10-13 23:01:00,50.1,35.9,30.36,East,90,0.0,2.0,58,0.00,,,0.00,Wunderground v.1.15,2013-10-14 04:01:00,
2013-10-13 23:02:00,50.1,35.9,30.35,East,90,0.0,2.0,58,0.00,,,0.00,Wunderground v.1.15,2013-10-14 04:02:00,
2013-10-13 23:04:00,50.1,35.9,30.35,East,90,0.0,2.0,58,0.00,,,0.00,Wunderground v.1.15,2013-10-14 04:04:00,
2013-10-13 23:08:00,50.3,36.1,30.35,East,90,0.0,2.0,58,0.00,,,0.00,Wunderground v.1.15,2013-10-14 04:08:00,
2013-10-13 23:11:00,50.3,36.1,30.35,East,90,0.0,2.0,58,0.00,,,0.00,Wunderground v.1.15,2013-10-14 04:11:00,
2013-10-13 23:16:00,50.3,36.1,30.35,East,90,0.0,2.0,58,0.00,,,0.00,Wunderground v.1.15,2013-10-14 04:16:00,
2013-10-13 23:22:00,50.1,36.3,30.35,East,90,1.0,2.0,59,0.00,,,0.00,Wunderground v.1.15,2013-10-14 04:22:00,
2013-10-13 23:26:00,49.9,36.6,30.35,East,90,1.0,2.0,60,0.00,,,0.00,Wunderground v.1.15,2013-10-14 04:26:00,
2013-10-13 23:32:00,49.7,36.4,30.35,East,90,0.0,2.0,60,0.00,,,0.00,Wunderground v.1.15,2013-10-14 04:32:00,
2013-10-13 23:37:00,49.5,36.2,30.35,East,90,1.0,2.0,60,0.00,,,0.00,Wunderground v.1.15,2013-10-14 04:37:00,
2013-10-13 23:43:00,49.0,35.7,30.35,East,90,0.0,2.0,60,0.00,,,0.00,Wunderground v.1.15,2013-10-14 04:43:00,
2013-10-13 23:48:00,48.8,35.9,30.35,East,90,0.0,2.0,61,0.00,,,0.00,Wunderground v.1.15,2013-10-14 04:48:00,
2013-10-13 23:54:00,48.7,36.3,30.34,East,90,0.0,2.0,62,0.00,,,0.00,Wunderground v.1.15,2013-10-14 04:54:00,
2013-10-13 23:59:00,48.5,36.5,30.35,East,90,0.0,2.0,63,0.00,,,0.00,Wunderground v.1.15,2013-10-14 04:59:00,